www.pogodaiklimat.ru

Погода и климат >> Архив погоды >> Россия >> Ростовская область >> Матвеев Курган


ПОГОДА в Матвеевом Кургане

  • Прогноз погоды в Матвеевом Кургане
  • Монитор погоды в Матвеевом Кургане

АРХИВ ПОГОДЫ в Матвеевом Кургане

Время (UTC), дата Ветер
(напр.,м/с)
 
Видим.   Явления Облачность Т
(С)
Тd
(С)
f
(%)
Тe
(С)
Тes
(С)
Комфортность P
(гПа)
Po
(гПа)
Тmin
(С)
Tmax
(С)
R
(мм)
R24
(мм)
S
(см)
18 12.06 СВ 2 20 км 8/3 600 м
[Sc diur, vesp Ac trans]
+25.9 +8.7 34 +26 +26 жарко 1010.2 1005.3
21 12.06 СВ 2 20 км 9/3 600 м
[Sc diur, vesp Ac trans]
+25.9 +6.8 30 +26 +26 жарко 1010.3 1005.3
00 13.06 С 1 20 км 9/0
[Ac trans]
+20.7 +8.9 47 +23 +23 комфорт 1010.5 1005.4
03 13.06 С 2 20 км 3/0
[Ci fib]
+21.2 +8.8 45 +22 +24 комфорт 1010.8 1005.8 +19.3
06 13.06 В 1 20 км 4/0
[Ci fib]
+28.3 +10.9 34 +29 +40 жарко 1011.7 1006.8
09 13.06 ЮВ 3 20 км 3/0
[Ci fib]
+34.0 +4.1 15 +31 +46 жарко 1012.4 1007.6
12 13.06 В 2 20 км 3/0
[Ci fib]
+35.2 +3.3 14 +32 +45 жарко 1012.0 1007.2
15 13.06 Ю 2 20 км 5/3 600 м
[Sc Ac trans Ci fib]
+33.9 +7.0 19 +32 +34 жарко 1012.0 1007.1 +35.9
18 13.06 СВ 3 20 км 6/0
[Ac trans Ci fib]
+25.6 +10.6 39 +27 +27 жарко 1014.0 1009.1
21 13.06 СВ 3 20 км 1/0
[Ci fib]
+22.6 +13.0 55 +26 +26 жарко 1014.9 1009.9
00 14.06 В 4
{10}
20 км 1/0
[Ci fib]
+22.4 +11.9 51 +25 +25 комфорт 1015.9 1010.9
03 14.06 СВ 2 20 км ясно +20.7 +10.4 52 +23 +24 комфорт 1018.0 1012.9 +20.0
06 14.06 В 4 20 км ясно +23.6 +5.0 30 +23 +30 комфорт 1019.2 1014.2
09 14.06 В 4
{10}
20 км ясно +27.2 +2.3 20 +26 +38 жарко 1018.8 1013.9
12 14.06 СВ 3 20 км ясно +29.5 +2.7 18 +27 +38 жарко 1018.0 1013.1
15 14.06 СВ 3 20 км 1/0
[Ci fib]
+29.0 -1.2 14 +26 +29 жарко 1016.8 1011.9 +29.7
18 14.06 СВ 1 20 км ясно +22.0 +5.0 33 +22 +22 комфорт 1017.1 1012.1
21 14.06 СВ 2 20 км ясно +17.8 +3.3 38 +18 +18 1017.0 1011.9
00 15.06 СВ 1 20 км ясно +14.8 +3.6 47 +16 +16 1016.4 1011.3
03 15.06 С 1 20 км ясно +14.1 +4.9 54 +15 +16 1016.1 1011.0 +11.2 222
06 15.06 В 1 20 км 3/0
[Ci fib]
+24.0 +6.1 32 +24 +35 комфорт 1016.0 1011.0
09 15.06 В 2 20 км 3/0
[Ci fib]
+29.6 -1.8 13 +27 +44 жарко 1014.9 1010.1
12 15.06 СВ 2 20 км 3/0
[Ci fib]
+32.1 -0.9 12 +29 +41 жарко 1013.2 1008.4
15 15.06 С 1 20 км 3/0
[Ci fib]
+32.5 +0.5 13 +29 +33 жарко 1011.5 1006.7 +32.8
18 15.06 СВ 1 20 км 3/0
[Ci fib]
+25.1 +8.6 35 +26 +26 жарко 1011.9 1007.0
21 15.06 З 1 20 км 3/0
[As trans]
+18.7 +11.0 61 +20 +20 1011.7 1006.7
00 16.06 штиль 0 20 км 3/0
[Ci fib]
+16.1 +10.8 71 +16 +16 1011.1 1006.1
03 16.06 СВ 1 20 км ясно +17.9 +12.1 69 +19 +20 1010.7 1005.7 +15.6
06 16.06 штиль 0 20 км ясно +27.2 +14.2 45 +29 +43 жарко 1010.6 1005.7
09 16.06 ЮВ 1 20 км ясно +33.3 +5.8 18 +31 +53 опасность
солнечного
удара
1009.8 1005.0
12 16.06 Ю 2 20 км 3/3 1000 м
[Cu hum]
+34.5 +5.9 17 +32 +42 жарко 1008.8 1004.0
15 16.06 ЮЗ 3 20 км 6/6 1000 м
[Sc diur, vesp]
+33.4 +8.1 21 +32 +33 жарко 1007.5 1002.7 +35.5
18 16.06 СВ 2
{12}
20 км гроза без осадков 10/10 600 м
[Cb cap]
+25.4 +14.8 52 +28 +28 жарко 1008.9 1004.0
21 16.06 СВ 2 20 км {гроза} ясно +20.4 +16.2 77 +24 +24 комфорт 1010.3 1005.3
00 17.06 СВ 1 20 км ясно +17.7 +15.1 85 +19 +19 1011.6 1006.5
03 17.06 С 1 20 км ясно +18.1 +15.7 86 +19 +21 1012.4 1007.4 +16.7
06 17.06 СВ 3 20 км ясно +23.7 +11.1 45 +25 +34 комфорт 1013.6 1008.6
09 17.06 СВ 4 20 км ясно +28.0 +8.8 30 +28 +40 жарко 1013.5 1008.6
12 17.06 СВ 4
{10}
20 км 3/3 600 м
[Cu hum]
+29.7 +8.7 27 +29 +35 жарко 1012.7 1007.9
15 17.06 СВ 3 20 км ясно +29.2 +6.5 24 +28 +30 жарко 1012.7 1007.8 +30.2
18 17.06 СВ 1 20 км ясно +23.2 +10.3 44 +25 +25 комфорт 1013.4 1008.5
21 17.06 СВ 1 20 км ясно +19.2 +10.2 56 +21 +21 комфорт 1014.3 1009.3
00 18.06 С 1 20 км ясно +16.4 +10.0 66 +17 +17 1014.2 1009.1
03 18.06 С 1 20 км ясно +17.6 +10.9 65 +19 +20 1014.6 1009.6 +15.6
06 18.06 СВ 2 20 км ясно +26.4 +11.7 40 +28 +38 жарко 1014.5 1009.6
09 18.06 СВ 3 20 км 6/6 1000 м
[Cu hum]
+29.6 +9.5 29 +29 +36 жарко 1013.9 1009.0
12 18.06 СВ 2 20 км 6/6 1000 м
[Cu hum]
+31.2 +10.4 28 +31 +36 жарко 1013.2 1008.3
15 18.06 СВ 3 20 км 3/3 1000 м
[Cu hum]
+30.5 +9.9 28 +30 +32 жарко 1012.1 1007.3 +31.6
18 18.06 СВ 1 20 км ясно +24.9 +11.9 44 +26 +26 жарко 1012.6 1007.6
21 18.06 С 1 20 км ясно +21.7 +12.1 54 +24 +24 комфорт 1012.9 1007.9
00 19.06 С 1 20 км ясно +18.2 +12.6 70 +20 +20 1012.9 1007.9
03 19.06 С 1 20 км ясно +18.8 +13.2 70 +21 +22 комфорт 1012.7 1007.7 +17.2
06 19.06 С 1 20 км ясно +27.9 +13.2 40 +30 +42 жарко 1012.8 1007.9
09 19.06 ЮВ 1 20 км 3/3 1000 м
[Cu hum]
+30.9 +11.8 31 +31 +46 жарко 1012.1 1007.3
12 19.06 З 1 20 км 6/6 600 м
[Cu Sc]
+33.1 +11.2 26 +33 +39 жарко 1010.9 1006.1

 

Местоположение метеостанции Матвеев Курган (Ростовская область, Россия): широта 47.57 долгота 38.88 высота над уровнем моря 43 м.

В архиве по умолчанию представлена погода в Матвеевом Кургане за последнюю неделю. Архивные данные за месяц целиком и за предыдущие месяцы, начиная с января 2011 года, Вы можете получить, выбрав интересующий диапазон дат из раскрывающегося списка и нажав кнопку "Ввод!".


*Определитесь, кто Вы:
робот инопланетянин человек

Внимание! Время в таблицах - всемирное. Для получения местного времени необходимо прибавить поправку, которая равна 3 ч.

Смотрите также архив погоды в соседних городах и на ближайших метеорологических станциях:

Погода в Таганроге (Ростовская область, Россия) (41 км)
Погода в Маргаритово (Ростовская область, Россия) (71 км)
Погода в Ростове-на-Дону (Ростовская область, Россия) (78 км)
Погода в Аэропорту Платов (Ростовская область, Россия) (79 км)
Погода в Ейске (Краснодарский край, Россия) (97 км)
Погода в Шахтах (Ростовская область, Россия) (105 км)
Погода в Волновахе (Донецкая область, Украина) (115 км)
Погода в Староминская (Краснодарский край, Россия) (116 км)
Погода в Мариуполе (Донецкая область, Украина) (120 км)
Погода в Кущевской (Краснодарский край, Россия) (129 км)

Пояснения к столбцам:

Ветер - указаны скорость ветра в м/с - средняя за 10 мин, порывы в срок и между сроками (в фигурных скобках) и направление, откуда дует ветер: С - северный, СВ - северо-восточный, В - восточный, ЮВ - юго-восточный, Ю - южный, ЮЗ - юго-западный, З - западный, СЗ - северо-западный.
Видимость - горизонтальная дальность видимости в метрах или километрах. При видимости от 1 до 10 км при отсутствии осадков обычно наблюдается дымка, при ухудшении видимости до 1 км и менее - туман. В сухую погоду видимость может ухудшаться дымом, пылью или мглою.
Явления - указаны атмосферные явления, наблюдавшиеся в срок или в последний час перед сроком; фигурными скобками обозначены явления, наблюдавшиеся между сроками (за 1-3 часа до срока); квадратными скобками обозначены град или гололедные отложения с указанием их диаметра в мм.
Облачность - указаны через наклонную черту общая и нижняя облачность в баллах и высота нижней границы облаков в метрах; квадратными скобками обозначены формы облаков: Ci - перистые, Cs - перисто-слоистые, Cc - перисто-кучевые, Ac - высококучевые, As - высокослоистые, Sc - слоисто-кучевые, Ns - слоисто-дождевые, Cu - кучевые, Cb - кучево-дождевые. Подробнее классификацию облаков см. в Атласе облаков (PDF).
T - Температура воздуха - температура, измеренная на высоте 2 м над землей.
Td - Температура точки росы - температура, при понижении до которой содержащийся в воздухе водяной пар достигнет насыщения.
f - Относительная влажность воздуха - влажноcть воздуха, измеренная на высоте 2 м над землей.
Te - Эффективная температура - температура, которую ощущает одетый по сезону человек в тени. Характеристика душности погоды. При расчете учитывается влияние влажности воздуха и скорости ветра на теплоощущения человека.
Tes - Эффективная температура на солнце - температура, которую ощущает человек, с поправкой на солнечный нагрев. Характеристика знойности погоды. Зависит от высоты солнца над горизонтом, облачности и скорости ветра. Ночью, в пасмурную погоду, а также при ветре 12 м/с и более поправка равна нулю.
P - Атмосферное давление - приведенное к уровню моря атмосферное давление.
Po - Атмосферное давление - измеренное на уровне метеостанции атмосферное давление.
Tmin - Минимальная температура - минимум температуры воздуха на высоте 2 м над землей.
Tmax - Максимальная температура - максимум температуры воздуха на высоте 2 м над землей.
R - Количество осадков - Количество выпавших осадков за период времени, мм. При наведении курсора мыши на число - период времени, за который выпало указанное количество осадков.
R24 - Количество осадков - Количество выпавших осадков за 24 часа, мм.
S - Снежный покров - Высота снежного покрова, см. При наведении курсора мыши на число - состояние снежного покрова и степень покрытия местности в баллах.